Location: *
(45.8589°N, 4.7139°E)
Time: 02:07:14
(UTC+00:00)

COSMOS 2455 - Pass Details

Date: 09 April 2020
Orbit: 899 x 910 km, 67.1° (Epoch: 02 June)

Event Time Altitude Azimuth Distance (km) Brightness Sun altitude
Rises 20:01:27 0° 325° (NW) 3,545 7.2 -17.1°
Reaches altitude 10° 20:03:59 10° 323° (NW) 2,601 6.3 -17.4°
Maximum altitude 20:09:57 66° 243° (WSW) 993 3.1 -18.3°
Enters shadow 20:13:55 22° 166° (SSE) 1,882 4.1 -18.9°
